UAE9521 OKKK-OMDW

Flight info

Callsign UAE9521
Flight time 1h 13m
Altitude 35000
Route SESRU M677 LUDAM G666 ELOVU
Aircraft B744/H-SDE3FGHIM1M2RWXY/LB1

Departure

Time 2026-04-27 18:10
Airport Kuwait International Airport (OKKK)

Arrival

Time 2026-04-27 19:23
Airport Al Maktoum International Airport (OMDW)
Time Latitude Longitude Altitude Speed Heading
2026-04-27 17:43 29.23393 47.95748 157 ft 0 kts 245°
2026-04-27 17:57 29.23399 47.95762 156 ft 2 kts 245°
2026-04-27 17:57 29.23405 47.95777 156 ft 2 kts 245°
2026-04-27 17:57 29.23412 47.95793 156 ft 2 kts 249°
2026-04-27 17:58 29.23415 47.95805 156 ft 2 kts 265°
2026-04-27 17:58 29.23415 47.95815 156 ft 2 kts 276°
2026-04-27 17:58 29.23411 47.95832 156 ft 2 kts 293°
2026-04-27 17:58 29.23404 47.95847 156 ft 2 kts 310°
2026-04-27 17:59 29.23393 47.95859 156 ft 2 kts 327°
2026-04-27 17:59 29.23386 47.95863 156 ft 1 kts 336°
2026-04-27 17:59 29.23383 47.95864 156 ft 0 kts 335°
2026-04-27 18:04 29.23398 47.95860 156 ft 11 kts 346°
2026-04-27 18:04 29.23564 47.95790 154 ft 39 kts 334°
2026-04-27 18:05 29.23806 47.95658 150 ft 30 kts 336°
2026-04-27 18:05 29.23938 47.95718 147 ft 20 kts 58°
2026-04-27 18:05 29.23936 47.95841 146 ft 14 kts 138°
2026-04-27 18:05 29.23892 47.95898 147 ft 6 kts 96°
2026-04-27 18:06 29.23896 47.95933 146 ft 2 kts 66°
2026-04-27 18:06 29.23902 47.95948 146 ft 2 kts 64°
2026-04-27 18:06 29.23934 47.96024 146 ft 21 kts 64°
2026-04-27 18:06 29.23959 47.96208 146 ft 21 kts 147°
2026-04-27 18:07 29.23914 47.96227 146 ft 0 kts 158°
2026-04-27 18:08 29.23910 47.96229 146 ft 5 kts 158°
2026-04-27 18:09 29.23621 47.96381 148 ft 88 kts 155°
2026-04-27 18:09 29.22846 47.96795 158 ft 155 kts 157°
2026-04-27 18:09 29.21743 47.97342 392 ft 183 kts 161°
2026-04-27 18:09 29.20557 47.97881 707 ft 185 kts 163°
2026-04-27 18:10 29.19283 47.98473 1059 ft 205 kts 156°
2026-04-27 18:10 29.18174 47.99392 2027 ft 198 kts 140°
2026-04-27 18:10 29.17452 48.00776 2835 ft 213 kts 114°
2026-04-27 18:10 29.17083 48.02391 3621 ft 218 kts 110°
2026-04-27 18:11 29.16662 48.04066 3786 ft 223 kts 113°
2026-04-27 18:11 29.16192 48.05832 3941 ft 240 kts 112°
2026-04-27 18:11 29.15689 48.07788 3885 ft 273 kts 111°
2026-04-27 18:11 29.15181 48.09922 4148 ft 286 kts 103°
2026-04-27 18:12 29.15093 48.12202 4654 ft 289 kts 94°
2026-04-27 18:12 29.15126 48.14492 5133 ft 287 kts 95°
2026-04-27 18:12 29.15122 48.16721 5826 ft 277 kts 95°
2026-04-27 18:12 29.15119 48.18908 6475 ft 270 kts 94°
2026-04-27 18:13 29.15108 48.21028 7040 ft 268 kts 94°
2026-04-27 18:13 29.15107 48.23139 7560 ft 268 kts 94°
2026-04-27 18:13 29.15099 48.25267 8056 ft 269 kts 93°
2026-04-27 18:13 29.15089 48.27424 8557 ft 271 kts 93°
2026-04-27 18:14 29.15081 48.29574 9036 ft 274 kts 92°
2026-04-27 18:14 29.15093 48.31778 9522 ft 277 kts 91°
2026-04-27 18:14 29.15107 48.33995 9977 ft 281 kts 90°
2026-04-27 18:14 29.15122 48.36258 10350 ft 289 kts 92°
2026-04-27 18:15 29.15113 48.38599 10673 ft 299 kts 91°
2026-04-27 18:15 29.15107 48.41027 11070 ft 305 kts 91°
2026-04-27 18:15 29.15101 48.43466 11508 ft 308 kts 91°
2026-04-27 18:15 29.15105 48.45884 11966 ft 310 kts 91°
2026-04-27 18:16 29.15100 48.48370 12446 ft 311 kts 91°
2026-04-27 18:16 29.15097 48.50854 12901 ft 313 kts 91°
2026-04-27 18:16 29.15093 48.53330 13312 ft 317 kts 91°
2026-04-27 18:16 29.15092 48.55891 13670 ft 323 kts 91°
2026-04-27 18:17 29.15091 48.58471 13959 ft 330 kts 91°
2026-04-27 18:17 29.15084 48.61134 14193 ft 340 kts 91°
2026-04-27 18:17 29.15072 48.63886 14287 ft 355 kts 91°
2026-04-27 18:17 29.15056 48.66786 14366 ft 367 kts 91°
2026-04-27 18:18 29.15056 48.69695 14682 ft 370 kts 90°
2026-04-27 18:18 29.15053 48.72648 15026 ft 372 kts 91°
2026-04-27 18:18 29.15044 48.75629 15412 ft 373 kts 91°
2026-04-27 18:18 29.15041 48.78572 15749 ft 375 kts 91°
2026-04-27 18:19 29.15031 48.81550 16115 ft 376 kts 91°
2026-04-27 18:19 29.15019 48.84550 16463 ft 378 kts 91°
2026-04-27 18:19 29.14941 48.87532 16773 ft 379 kts 99°
2026-04-27 18:19 29.14289 48.90464 17066 ft 378 kts 115°
2026-04-27 18:20 29.12992 48.93045 17353 ft 375 kts 132°
2026-04-27 18:20 29.11151 48.95149 17661 ft 372 kts 144°
2026-04-27 18:20 29.09137 48.97033 17997 ft 374 kts 143°
2026-04-27 18:20 29.07173 48.98968 18337 ft 375 kts 143°
2026-04-27 18:21 29.05181 49.00923 18692 ft 375 kts 144°
2026-04-27 18:21 29.03188 49.02871 19019 ft 378 kts 144°
2026-04-27 18:21 29.01172 49.04834 19266 ft 384 kts 144°
2026-04-27 18:21 28.99111 49.06838 19415 ft 393 kts 143°
2026-04-27 18:22 28.97003 49.08878 19400 ft 406 kts 144°
2026-04-27 18:22 28.94798 49.11006 19103 ft 427 kts 143°
2026-04-27 18:22 28.92449 49.13288 18420 ft 456 kts 142°
2026-04-27 18:22 28.89999 49.15661 18188 ft 471 kts 142°
2026-04-27 18:23 28.87541 49.18120 18571 ft 471 kts 141°
2026-04-27 18:23 28.85076 49.20655 18935 ft 471 kts 141°
2026-04-27 18:23 28.82650 49.23137 19206 ft 474 kts 141°
2026-04-27 18:23 28.80189 49.25659 19573 ft 474 kts 141°
2026-04-27 18:24 28.77723 49.28187 19856 ft 476 kts 142°
2026-04-27 18:24 28.75244 49.30729 20164 ft 477 kts 141°
2026-04-27 18:24 28.72791 49.33229 20436 ft 479 kts 142°
2026-04-27 18:24 28.70298 49.35778 20784 ft 479 kts 142°
2026-04-27 18:25 28.67811 49.38319 21132 ft 480 kts 142°
2026-04-27 18:25 28.65302 49.40871 21484 ft 480 kts 142°
2026-04-27 18:25 28.62834 49.43411 21841 ft 480 kts 142°
2026-04-27 18:25 28.60460 49.46109 22169 ft 485 kts 133°
2026-04-27 18:26 28.58567 49.49298 22518 ft 490 kts 123°
2026-04-27 18:26 28.56867 49.52654 22919 ft 488 kts 124°
2026-04-27 18:26 28.55113 49.55951 23322 ft 487 kts 124°
2026-04-27 18:26 28.53386 49.59227 23721 ft 486 kts 124°
2026-04-27 18:27 28.51627 49.62534 24135 ft 484 kts 124°
2026-04-27 18:27 28.49900 49.65790 24515 ft 482 kts 125°
2026-04-27 18:27 28.48144 49.69062 24886 ft 480 kts 126°
2026-04-27 18:27 28.46418 49.72293 25181 ft 481 kts 126°
2026-04-27 18:28 28.44646 49.75604 25220 ft 492 kts 125°
2026-04-27 18:28 28.42849 49.78903 25008 ft 504 kts 128°
2026-04-27 18:28 28.40570 49.81994 24884 ft 507 kts 141°
2026-04-27 18:28 28.37802 49.84441 25075 ft 503 kts 151°
2026-04-27 18:29 28.34840 49.86539 25324 ft 506 kts 152°
2026-04-27 18:29 28.31903 49.88758 25730 ft 507 kts 151°
2026-04-27 18:29 28.28955 49.90971 26071 ft 507 kts 152°
2026-04-27 18:29 28.26007 49.93187 26320 ft 511 kts 152°
2026-04-27 18:30 28.23061 49.95423 26593 ft 512 kts 151°
2026-04-27 18:30 28.20103 49.97652 26922 ft 513 kts 152°
2026-04-27 18:30 28.17122 49.99903 27169 ft 515 kts 152°
2026-04-27 18:30 28.14140 50.02163 27359 ft 519 kts 152°
2026-04-27 18:31 28.11109 50.04447 27538 ft 524 kts 152°
2026-04-27 18:31 28.08046 50.06764 27750 ft 526 kts 152°
2026-04-27 18:31 28.05015 50.09056 28004 ft 528 kts 152°
2026-04-27 18:31 28.01946 50.11370 28237 ft 531 kts 152°
2026-04-27 18:32 27.98851 50.13705 28475 ft 532 kts 152°
2026-04-27 18:32 27.95789 50.16016 28680 ft 535 kts 152°
2026-04-27 18:32 27.92710 50.18338 28942 ft 536 kts 153°
2026-04-27 18:32 27.89557 50.20707 29141 ft 537 kts 153°
2026-04-27 18:33 27.86424 50.23071 29356 ft 538 kts 153°
2026-04-27 18:33 27.83312 50.25403 29573 ft 538 kts 153°
2026-04-27 18:33 27.80198 50.27748 29743 ft 539 kts 153°
2026-04-27 18:33 27.77061 50.30101 29906 ft 539 kts 153°
2026-04-27 18:34 27.73914 50.32457 30054 ft 540 kts 153°
2026-04-27 18:34 27.70800 50.34781 30249 ft 539 kts 153°
2026-04-27 18:34 27.67613 50.37175 30405 ft 540 kts 153°
2026-04-27 18:34 27.64510 50.39530 30545 ft 541 kts 153°
2026-04-27 18:35 27.61391 50.41932 30675 ft 541 kts 152°
2026-04-27 18:35 27.58227 50.44325 30779 ft 541 kts 153°
2026-04-27 18:35 27.51960 50.49092 30992 ft 543 kts 153°
2026-04-27 18:36 27.48785 50.51521 31114 ft 543 kts 152°
2026-04-27 18:36 27.45666 50.53951 31242 ft 544 kts 152°
2026-04-27 18:36 27.42587 50.56354 31375 ft 542 kts 153°
2026-04-27 18:36 27.39426 50.58715 31517 ft 541 kts 153°
2026-04-27 18:37 27.36309 50.61061 31644 ft 541 kts 153°
2026-04-27 18:37 27.33168 50.63469 31799 ft 541 kts 152°
2026-04-27 18:37 27.30070 50.65825 31949 ft 540 kts 154°
2026-04-27 18:37 27.26945 50.68207 32076 ft 540 kts 153°
2026-04-27 18:38 27.23842 50.70547 32214 ft 539 kts 154°
2026-04-27 18:38 27.20737 50.72910 32353 ft 539 kts 153°
2026-04-27 18:38 27.17650 50.75276 32503 ft 538 kts 153°
2026-04-27 18:38 27.14616 50.77771 32609 ft 545 kts 147°
2026-04-27 18:39 27.11867 50.80755 32747 ft 551 kts 140°
2026-04-27 18:39 27.09188 50.83802 32900 ft 549 kts 142°
2026-04-27 18:39 27.06484 50.86795 33061 ft 549 kts 141°
2026-04-27 18:39 27.03778 50.89870 33217 ft 549 kts 141°
2026-04-27 18:40 27.01139 50.92913 33365 ft 551 kts 139°
2026-04-27 18:40 26.98764 50.96356 33485 ft 560 kts 128°
2026-04-27 18:40 26.96750 51.00093 33620 ft 561 kts 126°
2026-04-27 18:40 26.94695 51.03785 33795 ft 559 kts 128°
2026-04-27 18:41 26.92609 51.07486 33950 ft 559 kts 127°
2026-04-27 18:41 26.90577 51.11165 34085 ft 558 kts 127°
2026-04-27 18:41 26.88552 51.14868 34252 ft 558 kts 126°
2026-04-27 18:41 26.86776 51.18724 34423 ft 562 kts 115°
2026-04-27 18:42 26.85537 51.22828 34610 ft 564 kts 110°
2026-04-27 18:42 26.84740 51.25665 34723 ft 564 kts 111°
2026-04-27 18:42 26.81816 51.35405 34826 ft 571 kts 112°
2026-04-27 18:43 26.79292 51.43786 34825 ft 576 kts 111°
2026-04-27 18:43 26.76705 51.52328 34821 ft 580 kts 111°
2026-04-27 18:44 26.74159 51.60870 34792 ft 584 kts 110°
2026-04-27 18:44 26.71593 51.69534 34785 ft 585 kts 112°
2026-04-27 18:45 26.69008 51.78128 34791 ft 585 kts 112°
2026-04-27 18:45 26.66411 51.86742 34793 ft 586 kts 111°
2026-04-27 18:46 26.63730 51.95306 34788 ft 585 kts 114°
2026-04-27 18:46 26.60913 52.03865 34794 ft 586 kts 112°
2026-04-27 18:47 26.58134 52.12385 34797 ft 586 kts 112°
2026-04-27 18:47 26.55328 52.20943 34792 ft 587 kts 112°
2026-04-27 18:48 26.52542 52.29451 34796 ft 587 kts 112°
2026-04-27 18:48 26.49739 52.38001 34787 ft 588 kts 112°
2026-04-27 18:49 26.46925 52.46560 34796 ft 588 kts 112°
2026-04-27 18:49 26.44092 52.55078 34793 ft 588 kts 112°
2026-04-27 18:50 26.41308 52.63698 34789 ft 589 kts 111°
2026-04-27 18:50 26.38440 52.72221 34784 ft 588 kts 112°
2026-04-27 18:51 26.35640 52.80742 34788 ft 588 kts 112°
2026-04-27 18:51 26.32776 52.89234 34793 ft 587 kts 112°
2026-04-27 18:52 26.29942 52.97705 34796 ft 586 kts 113°
2026-04-27 18:53 26.25666 53.10444 34803 ft 587 kts 112°
2026-04-27 18:53 26.22816 53.18959 34792 ft 587 kts 113°
2026-04-27 18:54 26.19945 53.27447 34796 ft 586 kts 112°
2026-04-27 18:54 26.17011 53.35891 34776 ft 584 kts 117°
2026-04-27 18:55 26.13603 53.44074 34793 ft 584 kts 116°
2026-04-27 18:55 26.10211 53.52379 34787 ft 585 kts 116°
2026-04-27 18:56 26.06880 53.60569 34781 ft 584 kts 117°
2026-04-27 18:56 26.03503 53.68803 34759 ft 584 kts 117°
2026-04-27 18:57 26.00204 53.77057 34775 ft 584 kts 116°
2026-04-27 18:57 25.96931 53.85326 34781 ft 583 kts 116°
2026-04-27 18:58 25.93697 53.93567 34785 ft 577 kts 116°
2026-04-27 18:58 25.92038 53.97502 34688 ft 554 kts 122°
2026-04-27 18:58 25.89936 54.00954 34346 ft 528 kts 134°
2026-04-27 18:58 25.87402 54.03786 33758 ft 507 kts 146°
2026-04-27 18:59 25.84493 54.05936 33084 ft 495 kts 159°
2026-04-27 18:59 25.81324 54.07329 32480 ft 487 kts 172°
2026-04-27 18:59 25.78019 54.07940 32016 ft 478 kts 184°
2026-04-27 18:59 25.74722 54.07819 31572 ft 473 kts 192°
2026-04-27 19:00 25.71430 54.07649 31114 ft 484 kts 185°
2026-04-27 19:00 25.68047 54.07811 30647 ft 485 kts 188°
2026-04-27 19:00 25.64686 54.07422 30190 ft 481 kts 194°
2026-04-27 19:00 25.61290 54.07165 29724 ft 493 kts 184°
2026-04-27 19:01 25.57853 54.07542 29286 ft 504 kts 175°
2026-04-27 19:01 25.54352 54.08295 28812 ft 506 kts 175°
2026-04-27 19:01 25.50817 54.08997 28324 ft 507 kts 175°
2026-04-27 19:01 25.47299 54.09740 27845 ft 508 kts 174°
2026-04-27 19:02 25.43766 54.10485 27372 ft 509 kts 174°
2026-04-27 19:02 25.40232 54.11300 26904 ft 511 kts 173°
2026-04-27 19:02 25.36731 54.12090 26441 ft 510 kts 174°
2026-04-27 19:02 25.33247 54.12894 25989 ft 511 kts 173°
2026-04-27 19:03 25.29739 54.13705 25531 ft 511 kts 173°
2026-04-27 19:03 25.26253 54.14486 25080 ft 511 kts 173°
2026-04-27 19:03 25.22794 54.15274 24630 ft 512 kts 173°
2026-04-27 19:03 25.20417 54.15813 24316 ft 512 kts 173°
2026-04-27 19:04 25.15779 54.16872 23703 ft 512 kts 172°
2026-04-27 19:04 25.12333 54.18003 23191 ft 520 kts 162°
2026-04-27 19:04 25.09080 54.19888 22683 ft 529 kts 151°
2026-04-27 19:04 25.06212 54.22435 22196 ft 537 kts 139°
2026-04-27 19:05 25.03798 54.25567 21620 ft 538 kts 128°
2026-04-27 19:05 25.01972 54.29080 20745 ft 519 kts 115°
2026-04-27 19:05 25.00863 54.32757 19859 ft 498 kts 103°
2026-04-27 19:05 25.00402 54.36467 19073 ft 484 kts 97°
2026-04-27 19:06 24.99980 54.40130 18597 ft 485 kts 101°
2026-04-27 19:06 24.99362 54.43832 18115 ft 488 kts 102°
2026-04-27 19:06 24.98724 54.47492 17643 ft 490 kts 102°
2026-04-27 19:06 24.98025 54.51199 17166 ft 492 kts 103°
2026-04-27 19:07 24.97315 54.54879 16690 ft 493 kts 103°
2026-04-27 19:07 24.96589 54.58557 16214 ft 494 kts 103°
2026-04-27 19:07 24.95855 54.62244 15737 ft 495 kts 103°
2026-04-27 19:07 24.95113 54.65935 15256 ft 496 kts 103°
2026-04-27 19:08 24.94362 54.69676 14761 ft 496 kts 103°
2026-04-27 19:08 24.93613 54.73378 14266 ft 496 kts 103°
2026-04-27 19:08 24.92865 54.77086 13763 ft 496 kts 103°
2026-04-27 19:08 24.92117 54.80768 13265 ft 496 kts 102°
2026-04-27 19:09 24.91360 54.84491 12749 ft 495 kts 102°
2026-04-27 19:09 24.90607 54.88186 12218 ft 492 kts 102°
2026-04-27 19:09 24.89880 54.91707 11089 ft 454 kts 102°
2026-04-27 19:09 24.89208 54.94955 10019 ft 425 kts 101°
2026-04-27 19:10 24.88584 54.98026 9248 ft 389 kts 100°
2026-04-27 19:10 24.88049 55.00734 9053 ft 339 kts 99°
2026-04-27 19:10 24.87635 55.03112 9007 ft 304 kts 98°
2026-04-27 19:10 24.87256 55.04577 8958 ft 294 kts 111°
2026-04-27 19:11 24.85762 55.07130 8493 ft 307 kts 127°
2026-04-27 19:11 24.84404 55.09015 8030 ft 312 kts 126°
2026-04-27 19:11 24.83109 55.10902 7563 ft 311 kts 126°
2026-04-27 19:11 24.81803 55.12789 7081 ft 309 kts 126°
2026-04-27 19:12 24.80546 55.14718 6592 ft 307 kts 120°
2026-04-27 19:12 24.79482 55.16721 6130 ft 305 kts 118°
2026-04-27 19:12 24.78402 55.18721 5655 ft 304 kts 119°
2026-04-27 19:12 24.77314 55.20725 5178 ft 303 kts 118°
2026-04-27 19:13 24.76255 55.22696 4705 ft 303 kts 119°
2026-04-27 19:13 24.75136 55.24680 4232 ft 302 kts 120°
2026-04-27 19:13 24.74039 55.26663 3757 ft 302 kts 120°
2026-04-27 19:13 24.72954 55.28613 3284 ft 302 kts 120°
2026-04-27 19:14 24.71852 55.30592 2817 ft 302 kts 120°
2026-04-27 19:14 24.70755 55.32569 2344 ft 301 kts 120°
2026-04-27 19:14 24.69666 55.34521 1883 ft 301 kts 120°
2026-04-27 19:14 24.68597 55.36448 1658 ft 289 kts 120°
2026-04-27 19:15 24.67770 55.38414 1679 ft 277 kts 102°
2026-04-27 19:15 24.67625 55.40513 1774 ft 276 kts 79°
2026-04-27 19:15 24.68168 55.42520 1858 ft 275 kts 58°
2026-04-27 19:15 24.69312 55.44166 1892 ft 268 kts 37°
2026-04-27 19:16 24.70816 55.45180 1868 ft 241 kts 14°
2026-04-27 19:16 24.71857 55.45417 1951 ft 223 kts 359°
2026-04-27 19:16 24.73780 55.44914 1907 ft 209 kts 326°
2026-04-27 19:16 24.74789 55.43792 1897 ft 208 kts 301°
2026-04-27 19:17 24.75386 55.42336 1925 ft 209 kts 294°
2026-04-27 19:17 24.76018 55.40867 1950 ft 214 kts 299°
2026-04-27 19:17 24.76751 55.39413 1966 ft 216 kts 300°
2026-04-27 19:17 24.77501 55.37976 1971 ft 217 kts 301°
2026-04-27 19:18 24.78269 55.36554 1963 ft 216 kts 302°
2026-04-27 19:18 24.79038 55.35152 1939 ft 210 kts 302°
2026-04-27 19:18 24.79771 55.33837 1969 ft 190 kts 302°
2026-04-27 19:18 24.80449 55.32614 1916 ft 185 kts 302°
2026-04-27 19:19 24.81121 55.31412 1900 ft 182 kts 302°
2026-04-27 19:19 24.81772 55.30245 1870 ft 176 kts 302°
2026-04-27 19:19 24.82401 55.29107 1854 ft 174 kts 302°
2026-04-27 19:19 24.83033 55.27973 1858 ft 172 kts 302°
2026-04-27 19:20 24.83669 55.26837 1872 ft 172 kts 302°
2026-04-27 19:20 24.84276 55.25754 1893 ft 160 kts 302°
2026-04-27 19:20 24.84849 55.24720 1801 ft 156 kts 302°
2026-04-27 19:20 24.85416 55.23708 1512 ft 151 kts 302°
2026-04-27 19:21 24.85951 55.22750 1251 ft 145 kts 302°
2026-04-27 19:21 24.86484 55.21809 1051 ft 147 kts 302°
2026-04-27 19:21 24.87019 55.20841 732 ft 149 kts 301°
2026-04-27 19:21 24.87555 55.19878 561 ft 146 kts 301°
2026-04-27 19:22 24.88091 55.18930 384 ft 148 kts 301°
2026-04-27 19:22 24.88641 55.17949 199 ft 151 kts 300°
2026-04-27 19:22 24.89168 55.16986 144 ft 135 kts 303°
2026-04-27 19:22 24.89563 55.16287 129 ft 77 kts 301°
2026-04-27 19:23 24.89738 55.15960 124 ft 38 kts 292°
2026-04-27 19:23 24.89781 55.15697 121 ft 31 kts 271°
2026-04-27 19:23 24.89783 55.15505 121 ft 17 kts 263°
2026-04-27 19:23 24.89740 55.15418 122 ft 8 kts 259°
2026-04-27 19:24 24.89766 55.15318 122 ft 25 kts 299°
2026-04-27 19:24 24.89870 55.15131 119 ft 25 kts 302°
2026-04-27 19:24 24.89956 55.14972 117 ft 20 kts 288°
2026-04-27 19:24 24.89894 55.14878 117 ft 14 kts 209°
2026-04-27 19:25 24.89707 55.14756 116 ft 46 kts 211°
2026-04-27 19:25 24.89453 55.14586 117 ft 37 kts 212°
2026-04-27 19:25 24.89303 55.14473 120 ft 7 kts 262°
2026-04-27 19:25 24.89327 55.14441 119 ft 3 kts 310°
2026-04-27 19:26 24.89338 55.14421 119 ft 3 kts 301°
2026-04-27 19:26 24.89349 55.14402 118 ft 2 kts 301°
2026-04-27 19:26 24.89351 55.14399 118 ft 0 kts 301°